Location: Plymouth
(43.7490°N, 87.9770°W)
Time: 05:19:57
(UTC-05:00)

Daily predictions for brighter satellites

Satellite Brightness Start Highest point End
(mag) Time Altitude Azimuth Time Altitude Azimuth Time Altitude Azimuth
Cosmos 1943 Rocket 4.4 00:02:20 10° N 00:06:00 17° NE 00:08:06 14° ENE
Cosmos 2315 Rocket 4.2 00:09:01 64° WNW 00:09:01 64° WNW 00:15:06 10° N
CZ-4C R/B 3.6 00:03:10 10° NW 00:09:38 40° WSW 00:09:38 40° WSW
SL-16 R/B 2.6 00:18:26 58° NNW 00:18:26 58° NNW 00:23:29 10° NNE
Terra 4.3 00:19:36 12° W 00:19:36 12° W 00:21:04 10° WNW
ATLAS 3B R/B 2.7 00:14:09 10° NNW 00:20:59 67° NE 00:21:09 67° ENE
Cosmos 841 Rocket 4.3 00:25:53 47° NNW 00:25:53 47° NNW 00:29:46 10° NNE
Nadezhda 1 Rocket 4.4 00:26:19 55° ENE 00:26:19 55° ENE 00:31:38 10° NNE
Cosmos 2184 Rocket 4.1 00:33:10 10° N 00:38:56 71° NW 00:38:56 71° NW
Cosmos 2237 Rocket 4.3 00:37:35 16° W 00:40:10 22° NW 00:44:31 10° N
USA 238 DEB 3.8 00:35:51 10° NW 00:42:56 70° NE 00:43:29 67° E
USA 238 3.8 00:35:57 10° NNW 00:43:02 69° NE 00:43:36 66° E
Cosmos 1238 Rocket 4.5 00:45:25 45° NE 00:45:25 45° NE 00:49:45 10° NNE
CZ-2C R/B 3.2 00:40:04 10° N 00:44:34 57° NNW 00:44:34 57° NNW
USA 215 4.5 00:54:05 10° ENE 00:57:50 28° E 00:57:50 28° E
Cosmos 2341 Rocket 4.1 00:59:52 10° N 01:05:38 67° NE 01:05:38 67° NE
Meteor 2-4 Rocket 4.2 01:08:12 53° NNE 01:08:12 53° NNE 01:12:21 10° NNE
Cosmos 1943 3.9 01:13:25 49° NE 01:13:25 49° NE 01:17:39 10° NNE
ATLAS CENTAUR R/B 3.8 01:15:19 18° NNW 01:15:19 18° NNW 01:17:41 10° N
Cosmos 2154 Rocket 4.2 01:12:37 10° NNW 01:18:09 65° NW 01:18:09 65° NW
Cosmos 2369 Rocket 3.1 01:33:49 10° NNW 01:37:31 40° NW 01:37:31 40° NW
NOSS 3-4 (A) 4.0 01:42:48 49° E 01:42:48 49° E 01:48:20 10° NE
NOSS 3-4 (C) 4.0 01:42:54 48° E 01:42:54 48° E 01:48:26 10° NE
ATLAS 2AS CENTAUR R/B 3.8 01:39:38 32° W 01:42:49 45° NW 01:50:35 10° NNE
Cosmos 1943 Rocket 2.5 01:44:53 10° NNW 01:49:35 62° NNW 01:49:35 62° NNW
NOSS 3-2 (A) 3.9 01:46:52 10° NW 01:54:23 87° SW 01:55:54 63° SSE
Lacrosse 5 rocket 4.2 01:56:56 12° E 01:56:56 12° E 01:57:42 10° E
Meteor 2-21 4.4 01:51:46 10° N 01:57:55 74° E 01:58:03 73° E
Cosmos 773 Rocket 4.3 02:03:36 62° N 02:03:36 62° N 02:07:56 10° NNE
Cosmos 2181 Rocket 4.3 02:03:59 57° WNW 02:03:59 57° WNW 02:10:21 10° N
Cosmos 2218 Rocket 3.9 01:58:22 10° N 02:04:25 81° WNW 02:04:25 81° WNW
Cosmos 2366 rocket 3.8 01:59:14 10° N 02:05:34 90° W 02:05:38 88° S
ATLAS 3B R/B 4.2 02:05:46 10° WNW 02:08:23 19° WNW 02:08:23 19° WNW
Cosmos 2228 4.4 02:08:17 10° NNW 02:10:52 34° NNW 02:10:52 34° NNW
SL-16 R/B 4.0 02:08:50 14° ESE 02:13:14 33° ENE 02:18:38 10° N
COSMOS 2406 4.0 02:13:26 41° ESE 02:13:31 41° ESE 02:18:53 10° NE
Cosmos 864 Rocket 4.3 02:07:10 10° N 02:13:31 84° W 02:13:42 82° SW
BREEZE M DEB (TANK) 4.3 01:50:56 10° WNW 02:14:04 64° SW 02:15:39 55° S
SL-8 Rocket 4.2 02:10:24 10° NNW 02:15:57 54° WNW 02:15:57 54° WNW
Cosmos 1066 Rocket 4.1 02:18:16 75° NE 02:18:16 75° NE 02:23:18 10° NNE
Cosmos 2112 Rocket 4.4 02:20:15 57° E 02:20:15 57° E 02:25:09 10° NNE
RESURS DK-1 3.8 02:23:04 34° ENE 02:23:04 34° ENE 02:25:44 10° NE
Meteor 1-22 Rocket 4.2 02:17:51 10° N 02:23:23 70° ENE 02:23:36 69° E
BREEZE-M DEB (TANK) 3.1 02:28:59 70° E 02:28:59 70° E 02:37:52 10° ENE
Cosmos 1656 Rocket 3.5 02:23:17 10° NNW 02:28:43 83° ENE 02:28:43 83° ENE
IRS-P3 4.1 02:26:44 10° NNE 02:32:05 69° ESE 02:32:15 69° ESE
COSMOS 2455 2.7 02:27:38 10° NNW 02:33:42 88° WSW 02:34:22 72° SSE
USA 215 3.3 02:36:45 10° NE 02:43:16 74° NW 02:45:10 49° WSW
Cosmos 921 Rocket 4.4 02:41:15 10° N 02:45:28 38° ENE 02:47:17 26° ESE
Cosmos 2056 Rocket 4.1 02:42:29 10° NNW 02:47:45 55° ENE 02:50:15 29° SE
AQUA 3.8 02:46:49 10° NNE 02:51:37 77° ESE 02:51:43 76° ESE
Cosmos 1680 Rocket 3.5 02:52:25 64° WNW 02:52:35 64° WNW 02:57:50 10° NNE
Cosmos 1953 3.4 02:49:49 10° N 02:53:36 39° ENE 02:54:07 37° E
CBERS-1 3.8 02:49:45 10° NNE 02:54:54 90° WNW 02:55:18 77° SSW
Cosmos 1812 Rocket 4.0 02:50:38 10° NNW 02:54:08 52° NW 02:54:08 52° NW
Nadezhda 3 Rocket 3.9 02:53:45 59° SSW 02:55:05 84° W 03:01:28 10° N
NOSS 2-2 (E) 4.3 02:56:13 43° ESE 02:56:13 43° ESE 03:00:25 10° NE
Resurs 1-4 Rocket 2.8 02:53:22 10° NNE 02:58:27 46° E 03:00:03 36° SE
UNK 4.1 02:59:12 44° SE 03:00:22 60° ENE 03:04:53 10° N
Cosmos 1544 3.9 02:57:36 10° N 03:00:26 49° NNE 03:00:26 49° NNE
ADEOS Rocket 3.5 02:58:50 10° NNE 03:04:51 57° ESE 03:08:02 31° SSE
NOSS 3-2 (C) 4.3 02:58:28 10° NW 03:05:35 45° WSW 03:06:31 43° SW
NPP 3.6 03:00:40 10° N 03:06:02 67° WNW 03:06:48 59° WSW
SL-27 R/B 3.2 03:07:54 53° NNE 03:07:54 53° NNE 03:10:46 10° NNE
CENTAUR R/B 3.1 03:01:32 10° NW 03:09:26 84° NE 03:17:53 10° SE
IRS-1D 3.9 03:05:49 10° NNE 03:11:00 62° E 03:12:41 41° SSE
Cosmos 1953 Rocket 4.0 03:10:35 47° SE 03:11:25 56° E 03:15:48 10° NNE
Cosmos 1758 3.4 03:07:40 10° N 03:11:47 73° E 03:11:58 72° ESE
ADEOS 3.9 03:07:41 10° NNE 03:12:52 61° ESE 03:14:35 40° SSE
Meteor 1-21 4.1 03:13:29 56° SW 03:14:33 70° WNW 03:20:10 10° N
CZ-2D R/B 2.3 03:10:33 10° NNE 03:15:50 65° ESE 03:17:38 40° SSE
USA 267 3.2 03:09:38 10° SE 03:16:11 90° S 03:22:47 10° NW
Meteor 1-4 Rocket 4.4 03:13:01 10° NNW 03:14:50 23° NW 03:14:50 23° NW
Meteor 2-8 Rocket 4.4 03:15:04 49° SSW 03:16:47 73° W 03:22:57 10° N
ARIANE 5 R/B 2.8 03:12:51 10° NNE 03:18:05 67° ESE 03:19:54 40° S
Cosmos 1452 Rocket 4.5 03:17:28 10° N 03:22:34 47° ENE 03:27:36 10° SE
Cosmos 1371 Rocket 4.1 03:18:28 10° NNW 03:23:44 57° WSW 03:24:31 51° SW
Cosmos 1271 Rocket 2.8 03:20:55 10° NNW 03:24:13 65° NW 03:24:13 65° NW
Cosmos 1805 3.6 03:24:40 10° NNW 03:27:59 49° WNW 03:27:59 49° WNW
NOSS 2-2 (D) 3.4 03:31:44 63° SSW 03:32:23 84° SE 03:37:05 10° NE
Cosmos 1825 Rocket 3.6 03:32:05 57° WSW 03:32:35 62° W 03:36:58 10° N
NOSS 3-4 (A) 4.5 03:30:13 25° W 03:33:12 37° NW 03:39:18 10° NNE
NOSS 3-4 (C) 4.5 03:30:19 25° W 03:33:18 38° NW 03:39:24 10° NNE
Cosmos 1943 Rocket 4.4 03:31:03 10° WNW 03:31:05 10° WNW 03:31:05 10° WNW
Lacrosse 5 rocket 1.5 03:32:38 56° SW 03:33:36 85° NW 03:38:18 10° NE
Cosmos 1821 Rocket 4.1 03:32:35 10° NNW 03:38:30 53° W 03:40:47 35° SSW
Cosmos 1833 Rocket 4.2 03:37:53 12° SSE 03:42:18 30° ESE 03:47:08 10° NE
COSMOS 2487 3.5 03:41:35 31° SE 03:42:40 40° ESE 03:46:02 10° NE
Cosmos 1842 4.4 03:44:23 29° WNW 03:44:23 29° WNW 03:47:35 10° NNW
Cosmos 2082 Rocket 3.5 03:41:03 14° SSE 03:45:23 35° ESE 03:50:31 10° NE
MOS 1 Rocket 4.2 03:42:22 10° NNE 03:46:30 41° E 03:49:57 15° SSE
Meteor 2-5 Rocket 4.5 03:42:51 14° SSE 03:47:41 52° E 03:53:21 10° NNE
Cosmos 1818 3.5 03:45:42 38° SW 03:47:53 82° NW 03:53:23 10° NNE
Cosmos 839 Rocket 4.1 03:42:57 10° NW 03:49:17 78° WSW 03:56:44 10° SSE
NOSS 2-2 (C) 3.6 03:49:35 44° WSW 03:50:45 66° NW 03:55:29 10° NNE
GEOS 3 Rocket 3.6 03:50:22 10° NE 03:55:40 81° NW 03:58:22 30° SW
Okean O Rocket 3.8 03:52:46 10° NE 03:56:16 22° E 03:59:44 10° SE
SL-16 R/B 2.8 03:53:54 28° SSW 03:56:42 44° W 04:02:34 10° NNW
Cosmos 1934 Rocket 4.2 03:50:42 10° NNW 03:56:45 50° W 04:00:18 25° SSW
COSMOS 2406 4.2 03:55:30 24° W 03:57:54 33° NW 04:03:06 10° N
Cosmos 1605 Rocket 3.9 03:53:09 10° NNW 03:59:19 68° W 04:04:30 15° S
RESURS DK-1 4.2 03:58:58 17° WNW 04:00:03 19° NW 04:03:01 10° N
ADEOS II 3.9 03:56:10 10° NE 04:00:41 28° E 04:05:09 10° SSE
MOZ.5/SAFIR/RUBIN 5/SL-8 3.7 04:00:24 14° S 04:04:28 76° WSW 04:09:11 10° NNW
Cosmos 1339 Rocket 4.4 04:00:55 18° S 04:05:38 87° W 04:11:49 10° N
Cosmos 1707 2.6 04:05:09 30° SSW 04:06:59 82° W 04:10:53 10° N
Meteor 1-16 Rocket 4.2 04:03:46 10° N 04:09:11 77° E 04:14:29 10° SSE
USA 161 1.3 04:08:36 38° S 04:09:35 76° WSW 04:12:25 10° NNW
Abrixas 4.0 04:08:18 16° NW 04:10:04 30° N 04:12:37 10° ENE
Cosmos 1378 3.3 04:08:44 21° S 04:11:10 73° E 04:14:55 10° NNE
Tiangong 1 2.6 04:15:54 20° SSE 04:15:54 20° SSE 04:17:14 10° SE
Orbus 7S? 2.7 04:12:10 10° NW 04:15:53 79° NE 04:18:28 10° SE
Cosmos-2242 3.3 04:12:40 10° NNW 04:16:55 48° W 04:19:40 20° SSW
Cosmos 1470 3.3 04:14:25 10° NNW 04:18:03 38° W 04:19:35 27° SW
Cosmos 389 Rocket 3.1 04:17:27 10° NNW 04:20:49 36° W 04:22:02 28° SW
Cosmos 2098 Rocket 2.8 04:19:15 10° NNW 04:21:54 31° W 04:22:03 31° W
Cosmos 921 Rocket 4.3 04:20:05 10° NW 04:23:30 22° W 04:24:01 21° WSW
Cosmos 1842 Rocket 3.5 04:20:18 10° N 04:24:44 89° ENE 04:29:11 10° S
USA 215 4.5 04:19:57 10° NE 04:25:42 34° NNW 04:31:26 10° WNW
Cosmos 1953 4.0 04:27:15 10° NW 04:29:41 16° W 04:29:50 16° W
Cosmos 2100 Rocket 4.0 04:26:12 10° N 04:32:26 87° W 04:38:34 10° S
UNKNOWN OBJECT B 3.7 04:30:07 10° N 04:33:47 35° WNW 04:36:05 19° SW
Cosmos 158 Rocket 4.1 04:30:46 10° SSW 04:35:45 73° ESE 04:40:55 10° NNE
Intercosmos 25 4.4 04:28:45 10° NNW 04:35:50 54° W 04:40:13 10° SSW
Cosmos 2173 Rocket 4.0 04:30:03 10° N 04:36:22 89° W 04:42:33 10° S
Cosmos 2221 3.6 04:32:23 10° N 04:36:32 47° ENE 04:40:39 10° SSE
Resurs 1-4 Rocket 3.4 04:33:47 10° N 04:38:00 25° WNW 04:41:08 15° WSW
Meteor 1-24 Rocket 3.7 04:37:12 10° S 04:42:41 90° W 04:48:26 10° N
CZ-2D R/B 4.3 04:41:41 10° N 04:45:18 31° WNW 04:48:01 15° SW
ADEOS Rocket 4.2 04:45:09 10° N 04:50:04 27° WNW 04:54:59 11° WSW
Cosmos 1697 Rocket 2.6 04:47:12 10° NNW 04:52:48 73° WSW 04:58:22 10° SSE
Cosmos 972 Rocket 4.4 04:48:18 10° NNW 04:54:46 78° WSW 05:00:27 10° S
CZ-2D R/B 3.7 04:51:48 10° NNW 04:55:23 19° WNW 04:58:54 10° WSW
ARIANE 5 R/B 4.2 04:53:11 10° NNW 04:56:40 18° WNW 05:00:07 10° WSW
CZ-4B DEB 4.4 04:51:54 10° NNE 04:57:26 77° ESE 05:02:53 10° S
PSLV R/B 4.0 04:55:02 10° N 04:59:05 61° WNW 05:03:10 10° SSW
CENTAUR R/B 4.0 04:53:18 10° WNW 04:59:34 25° WSW 05:06:04 10° SSW
USA 267 4.1 04:54:28 10° S 04:59:43 26° SW 05:05:00 10° WNW
GENESIS II 4.2 04:56:58 10° NW 05:00:57 90° WSW 05:04:51 10° SSE
Cosmos 2278 4.5 04:57:07 10° NW 05:02:02 30° WSW 05:06:55 10° SSW
Cosmos 2061 Rocket 4.1 04:57:17 10° NNW 05:03:24 60° W 05:09:27 10° S
SOZ 4.1 05:04:43 11° SW 05:06:45 79° SSE 05:09:16 10° ENE
EXPRESS MD2 3.5 05:02:49 10° WNW 05:07:13 37° SW 05:09:48 10° SSE
Okean-O 4.2 05:07:26 10° NNE 05:11:35 37° E 05:15:42 10° SSE
Lacrosse 5 rocket 3.3 05:09:39 10° WNW 05:13:28 24° NNW 05:17:16 10° NNE
Cosmos 2016 Rocket 4.1 05:08:20 10° NNW 05:14:31 63° W 05:20:44 10° S
EO 1 Del DPAF 3.2 05:11:28 10° S 05:15:17 66° WSW 05:19:09 10° NNW
Cosmos 2123 Rocket 4.1 05:10:05 10° S 05:16:24 88° W 05:22:44 10° N
Cosmos 2322 Rocket 3.7 05:12:49 10° NNW 05:18:14 42° ENE 05:23:36 10° SE
Cosmos 1674 3.1 05:15:31 10° S 05:19:16 69° E 05:23:06 10° NNE
Okean 3 Rocket 3.7 05:15:27 10° SSW 05:19:48 62° W 05:24:13 10° N
Cosmos 1656 4.4 05:16:16 10° NW 05:20:54 29° WSW 05:25:31 10° SSW
